COSMOS 1275 DEB, 42124

Orbit data source: Space-Track

COSMOS 1275 DEB, 42124 is space debris in LEO originally from a launch on Thu, 04 Jun 1981 UTC launched from the Plesetsk Missile And Space Complex (PKMTR). Debris objects in space refer to the collection of defunct objects orbiting the Earth. Examples of debris include non-operational satellites, rocket bodies, and fragments generated from explosions, collisions, or faulty payload assembly.

Loading next visibility...
Identifier
42124, 1981-053QL
Orbit
LEO
Country
Flag of CISCIS
Related business
Manufacturer
Unknown
Mission
Spacecraft
Bus & Motor
Unknown
Mass
Unknown
Launch date (UTC)
1981-06-04 (45 years ago)
Launch vehicle
Unknown
Launch site
Plesetsk Missile And Space Complex (PKMTR)
Object type
Payload
Rocket body
Debris
Shape & HBR
Unknown shape, 0.1 m
Radar Cross Section
Medium (>0.1 m² and <1 m²)

Expand to show TLE details & history
Last TLE update: 2 days ago

TLE from 2 days ago
0 COSMOS 1275 DEB
1 42124U 81053QL  26171.40353279  .00000925  00000-0  10188-2 0  9996
2 42124  83.0093 328.7344 0123203 255.9025 131.8625 13.67984470626401
Epoch: 2026-06-20T09:41Z
TLE epoch observation values (Epoch: 2026-06-20T09:41:05.233Z)
Latitude
28.61478°
Longitude
-81.34007°
Altitude
1,071.684 km
Speed
7.288 km/s
True Right ascension
22h 10m 12s
True Declination
28° 28' 35"
Sunlit
Object was in daylight at epoch
Visualization orbit readout
Latitude
Unknown
Longitude
Unknown
Altitude
Unknown
Speed
Unknown
Apparent Right ascension
Unknown
Apparent Declination
Unknown
Sunlit
N/A
Visualization observer readout
Local Sidereal Time
14:34:25
Azimuth
Unknown
Elevation
Unknown
Doppler factor
Unknown
Orbital elements
Apogee altitude
1,094.921 km
Perigee altitude
913.021 km
Semi-major axis
7,382.108 km
Eccentricity
0.01232
Inclination
83.0093°
RAAN
328.7344°
Arg. of periapsis
255.9025°
True anomaly
132.90318°
Mean anomaly
131.8625°
Eccentric anomaly
132.38391°
Mean motion
3.42194 °/min
Orbital period
105.2 mins
BSTAR
0.0010188
Loading maneuver chart data...
Computing Atmospheric mass density...
Loading historical data...
Loading historical data...
Loading historical data...
Loading historical data...
Loading historical data...
Loading historical data...
Loading historical data...

Documentation

Showing up to 5 results
|